Date String (YYYY-MM-DD hh:mm:ss) UTC,Instrument flags,Ambient pressure (hPa),Sample flow (lpm),Bypass flow (lpm),Sample temperature (°C),Ambient temperature (°C),ASC tube jacket temperature (°C),LED temperature (°C),Box temperature (°C),Sample RH (%),Span deviation,Mass concentration (μg/m³),Mass concentration (μg/m³),Mass concentration (μg/m³)
DateTimeUTC,F1_M11,P_M11,Q1_M11,Q2_M11,T1_M11,T2_M11,T3_M11,T4_M11,T5_M11,U1_M11,ZSPAN_M11,X2_M11,X0_M11,X1_M11
2022-07-16 06:00:00,,0832.6,5.00,0.00,31.2,28.5,00.0,39.2,32.0,33.4,0000.0,0004.50,0009.26,0003.92
2022-07-16 06:01:00,,0832.6,5.00,0.00,31.2,28.6,00.0,39.2,32.0,33.6,0000.0,0004.51,0008.76,0003.93
2022-07-16 06:02:00,,0832.6,5.00,0.00,31.2,28.7,00.0,39.3,32.0,33.7,0000.0,0004.55,0008.77,0003.95
2022-07-16 06:03:00,,0832.6,4.99,0.00,31.1,28.7,00.0,39.3,32.1,33.8,0000.0,0004.61,0008.95,0003.96
2022-07-16 06:04:00,,0832.6,5.01,0.00,31.2,28.6,00.0,39.3,32.1,33.6,0000.0,0004.66,0009.04,0003.98
2022-07-16 06:05:00,,0832.6,5.00,0.00,31.1,28.0,00.0,39.3,32.1,33.7,0000.0,0004.68,0009.12,0003.98
2022-07-16 06:06:00,,0832.6,5.01,0.00,31.1,27.6,00.0,39.3,32.0,33.7,0000.0,0004.69,0008.74,0003.99
2022-07-16 06:07:00,,0832.6,4.99,0.00,31.0,27.6,00.0,39.3,31.9,34.1,0000.0,0004.70,0008.43,0004.01
2022-07-16 06:08:00,,0832.7,5.01,0.00,30.9,27.7,00.0,39.3,31.8,34.5,0000.0,0004.73,0008.50,0004.01
2022-07-16 06:09:00,,0832.7,5.00,0.00,30.8,27.8,00.0,39.3,31.8,34.7,0000.0,0004.75,0008.49,0004.03
2022-07-16 06:10:00,,0832.7,4.99,0.00,30.8,28.0,00.0,39.3,31.8,34.9,0000.0,0004.80,0008.45,0004.06
2022-07-16 06:11:00,,0832.8,5.01,0.00,30.7,28.1,00.0,39.2,31.9,35.0,0000.0,0004.80,0009.06,0004.08
2022-07-16 06:12:00,,0832.7,4.99,0.00,30.8,28.3,00.0,39.2,31.9,34.7,0000.0,0004.84,0009.13,0004.10
2022-07-16 06:13:00,,0832.7,5.01,0.00,30.8,28.4,00.0,39.2,32.0,34.7,0000.0,0004.87,0009.18,0004.12
2022-07-16 06:14:00,,0832.7,5.00,0.00,30.8,28.5,00.0,39.2,32.0,34.1,0000.0,0004.83,0009.12,0004.11
2022-07-16 06:15:00,,0832.7,5.00,0.00,30.8,28.6,00.0,39.2,32.0,33.9,0000.0,0004.78,0009.07,0004.09
2022-07-16 06:16:00,,0832.8,5.00,0.00,30.8,28.7,00.0,39.3,32.1,34.3,0000.0,0004.80,0009.07,0004.09
2022-07-16 06:17:00,,0832.7,5.00,0.00,30.8,28.4,00.0,39.2,32.1,34.4,0000.0,0004.84,0009.25,0004.10
2022-07-16 06:18:00,,0832.7,4.99,0.00,30.8,27.8,00.0,39.2,32.0,34.5,0000.0,0004.87,0009.90,0004.11
2022-07-16 06:19:00,,0832.7,5.01,0.00,30.8,27.6,00.0,39.1,31.9,34.7,0000.0,0004.87,0010.10,0004.13
2022-07-16 06:20:00,,0832.7,5.02,0.00,30.7,27.6,00.0,39.2,31.8,35.1,0000.0,0004.87,0010.16,0004.13
2022-07-16 06:21:00,,0832.7,5.00,0.00,30.7,27.7,00.0,39.1,31.9,35.3,0000.0,0004.91,0010.52,0004.13
2022-07-16 06:22:00,,0832.8,4.98,0.00,31.0,27.8,00.0,39.1,32.0,34.9,0000.0,0004.93,0009.95,0004.14
2022-07-16 06:23:00,,0832.8,5.00,0.00,31.2,28.0,00.0,39.1,32.1,34.3,0000.0,0004.94,0009.98,0004.15
2022-07-16 06:24:00,,0832.8,5.00,0.00,31.3,28.1,00.0,39.2,32.1,34.1,0000.0,0004.91,0009.87,0004.16
2022-07-16 06:25:00,,0832.8,5.01,0.00,31.4,28.3,00.0,39.2,32.1,33.9,0000.0,0004.95,0009.86,0004.19
2022-07-16 06:26:00,,0832.8,5.00,0.00,31.4,28.4,00.0,39.3,32.1,33.9,0000.0,0005.02,0009.94,0004.23
2022-07-16 06:27:00,,0832.7,4.99,0.00,31.4,28.5,00.0,39.3,32.1,33.8,0000.0,0005.04,0009.92,0004.26
2022-07-16 06:28:00,,0832.8,5.01,0.00,31.4,28.6,00.0,39.4,32.1,33.8,0000.0,0005.02,0009.85,0004.28
2022-07-16 06:29:00,,0832.8,4.99,0.00,31.3,28.7,00.0,39.4,32.2,33.7,0000.0,0005.04,0009.30,0004.30
2022-07-16 06:30:00,,0832.9,5.01,0.00,31.3,28.7,00.0,39.4,32.2,33.6,0000.0,0005.05,0009.05,0004.30
2022-07-16 06:31:00,,0832.9,5.00,0.00,31.3,28.0,00.0,39.4,32.1,33.8,0000.0,0005.03,0008.95,0004.30
2022-07-16 06:32:00,,0832.9,5.00,0.00,31.3,27.3,00.0,39.3,32.0,34.0,0000.0,0005.04,0008.58,0004.31
2022-07-16 06:33:00,,0832.8,5.01,0.00,31.2,27.1,00.0,39.3,31.9,34.2,0000.0,0005.03,0008.75,0004.32
2022-07-16 06:34:00,,0832.8,4.99,0.00,31.0,27.1,00.0,39.3,31.7,34.4,0000.0,0005.05,0008.99,0004.34
2022-07-16 06:35:00,,0832.7,5.01,0.00,30.9,27.3,00.0,39.3,31.7,34.4,0000.0,0005.09,0009.11,0004.35
2022-07-16 06:36:00,,0832.7,5.00,0.00,30.8,27.4,00.0,39.3,31.7,34.4,0000.0,0005.06,0009.26,0004.34
2022-07-16 06:37:00,,0832.7,5.00,0.00,30.7,27.6,00.0,39.3,31.7,34.6,0000.0,0005.01,0009.11,0004.33
2022-07-16 06:38:00,,0832.7,5.00,0.00,30.7,27.8,00.0,39.3,31.8,34.5,0000.0,0004.99,0009.05,0004.32
2022-07-16 06:39:00,,0832.7,5.00,0.00,30.7,28.0,00.0,39.2,31.8,34.8,0000.0,0004.98,0009.18,0004.32
2022-07-16 06:40:00,,0832.8,5.00,0.00,30.6,28.1,00.0,39.2,31.8,34.8,0000.0,0005.00,0009.23,0004.32
2022-07-16 06:41:00,,0832.8,5.01,0.00,30.6,28.3,00.0,39.2,31.9,34.6,0000.0,0005.02,0009.27,0004.33
2022-07-16 06:42:00,,0832.8,5.00,0.00,30.6,28.4,00.0,39.2,31.9,34.1,0000.0,0005.01,0009.63,0004.31
2022-07-16 06:43:00,,0832.7,5.01,0.00,30.6,28.5,00.0,39.2,31.9,34.6,0000.0,0004.93,0009.57,0004.29
2022-07-16 06:44:00,,0832.7,5.00,0.00,30.6,28.6,00.0,39.2,32.0,35.4,0000.0,0004.94,0009.40,0004.29
2022-07-16 06:45:00,,0832.8,5.00,0.00,30.9,28.7,00.0,39.2,32.2,35.2,0000.0,0004.97,0009.32,0004.29
2022-07-16 06:46:00,,0832.8,4.98,0.00,31.2,28.8,00.0,39.2,32.3,34.7,0000.0,0004.98,0009.31,0004.28
2022-07-16 06:47:00,,0832.7,5.01,0.00,31.4,28.8,00.0,39.3,32.4,34.3,0000.0,0005.01,0009.27,0004.29
2022-07-16 06:48:00,,0832.7,5.00,0.00,31.5,28.9,00.0,39.3,32.3,34.0,0000.0,0005.01,0009.56,0004.28
2022-07-16 06:49:00,,0832.7,5.00,0.00,31.6,28.9,00.0,39.4,32.4,33.8,0000.0,0005.02,0009.59,0004.28
2022-07-16 06:50:00,,0832.8,5.00,0.00,31.6,28.4,00.0,39.3,32.3,33.6,0000.0,0005.03,0009.60,0004.27
2022-07-16 06:51:00,,0832.7,4.99,0.00,31.6,27.9,00.0,39.4,32.2,33.6,0000.0,0005.02,0009.89,0004.25
2022-07-16 06:52:00,,0832.7,5.01,0.00,31.5,27.8,00.0,39.4,32.1,33.8,0000.0,0004.98,0010.30,0004.23
2022-07-16 06:53:00,,0832.7,4.99,0.00,31.4,27.8,00.0,39.4,32.0,34.0,0000.0,0004.96,0009.86,0004.23
2022-07-16 06:54:00,,0832.7,5.00,0.00,31.3,27.9,00.0,39.5,32.0,34.3,0000.0,0005.00,0009.85,0004.24
2022-07-16 06:55:00,,0832.8,5.01,0.00,31.2,28.0,00.0,39.5,32.0,34.5,0000.0,0004.99,0009.89,0004.23
2022-07-16 06:56:00,,0832.7,4.99,0.00,31.2,28.2,00.0,39.5,32.0,34.6,0000.0,0004.99,0009.87,0004.22
2022-07-16 06:57:00,,0832.7,4.99,0.00,31.1,28.3,00.0,39.5,32.0,34.8,0000.0,0005.00,0010.03,0004.22
2022-07-16 06:58:00,,0832.7,5.00,0.00,31.1,28.4,00.0,39.5,32.1,34.8,0000.0,0004.98,0010.48,0004.22
2022-07-16 06:59:00,,0832.7,5.00,0.00,31.1,28.5,00.0,39.5,32.1,34.9,0000.0,0005.00,0010.84,0004.22
